This is the latest recevied weather packets stored in our database for station/object KK7MLS-13. If no packets are shown the sender has not sent any weather packets the latest 10 day(s).
| Time | Temp. | Humidity | Pressure | Rain* | Wind** | Luminosity | Snow |
|---|---|---|---|---|---|---|---|
| 1787941480 | 20.56° C | 61% | 1018.7 hPa | 0 mm | - | 179 W/m² | - |
| 1787941174 | 20° C | 62% | 1018.7 hPa | 0 mm | - | 198 W/m² | - |
| 1787940869 | 20° C | 62% | 1019 hPa | 0 mm | - | 173 W/m² | - |
| 1787940567 | 20.56° C | 59% | 1018.8 hPa | 0 mm | - | 313 W/m² | - |
| 1787940267 | 20° C | 61% | 1018.8 hPa | 0 mm | - | 355 W/m² | - |
| 1787939966 | 20° C | 63% | 1018.9 hPa | 0 mm | - | 201 W/m² | - |
| 1787939665 | 20.56° C | 62% | 1018.9 hPa | 0 mm | - | 137 W/m² | - |
| 1787939360 | 20.56° C | 61% | 1018.7 hPa | 0 mm | - | 162 W/m² | - |
| 1787939056 | 20° C | 61% | 1018.8 hPa | 0 mm | - | 243 W/m² | - |
| 1787938755 | 19.44° C | 63% | 1018.8 hPa | 0 mm | - | 725 W/m² | - |
| 1787938451 | 19.44° C | 65% | 1018.9 hPa | 0 mm | - | 125 W/m² | - |
| 1787938146 | 19.44° C | 64% | 1018.9 hPa | 0 mm | - | 124 W/m² | - |
| 1787937841 | 19.44° C | 66% | 1018.9 hPa | 0 mm | - | 140 W/m² | - |
| 1787937537 | 18.89° C | 67% | 1018.8 hPa | 0 mm | - | 131 W/m² | - |
| 1787937233 | 18.89° C | 66% | 1018.9 hPa | 0 mm | - | 135 W/m² | - |
| 1787936928 | 18.89° C | 65% | 1018.9 hPa | 0 mm | - | 197 W/m² | - |
| 1787936627 | 19.44° C | 64% | 1018.9 hPa | 0 mm | - | 142 W/m² | - |
| 1787936326 | 19.44° C | 67% | 1018.9 hPa | 0 mm | - | 124 W/m² | - |
| 1787936022 | 19.44° C | 66% | 1019.1 hPa | 0 mm | - | 97 W/m² | - |
| 1787935718 | 19.44° C | 67% | 1019 hPa | 0 mm | - | 519 W/m² | - |
| 1787935413 | 19.44° C | 67% | 1018.9 hPa | 0 mm | - | 193 W/m² | - |
| 1787935109 | 19.44° C | 68% | 1019 hPa | 0 mm | - | 52 W/m² | - |
| 1787934805 | 19.44° C | 66% | 1018.9 hPa | 0 mm | - | 66 W/m² | - |
| 1787934503 | 19.44° C | 67% | 1019.1 hPa | 0 mm | - | 47 W/m² | - |
| 1787934199 | 20° C | 66% | 1019 hPa | 0 mm | - | 253 W/m² | - |
* Rain latest hour (hover to see other rain measurements)
** Current wind speed in m/s (hover to see current wind gust speed)